Ohio State University Airport Columbus US
ICAO: KOSU
IATA: OSU
Category: Medium
Scheduled Services: No

Elevation: 905 ft
TransAlt. 18000 ft.

Airport Communications:
COLUMBUS APP/DEP:120.2
ATIS:121.35
CTAF:118.8
GND/CLNC DEL:121.7
TWR:118.8
UNICOM:122.95

KOSU Zoom In..

If you have problems with the map follow the link
https://www.worldairports.se/pages/airport.php?
ICAO=KOSU

Runways:

(A) RW 05 length 3562 ft width 100 ft
---- / hdg 54

(B) RW 09L length 2994 ft width 100 ft
---- / hdg 92

(C) RW 09R length 5004 ft width 100 ft
ILS 108.50 / hdg 92

(D) RW 14 length 3049 ft width 100 ft
---- / hdg 141

(E) RW 23 length 3562 ft width 100 ft
---- / hdg 234

(F) RW 27L length 5004 ft width 100 ft
---- / hdg 272

(G) RW 27R length 2994 ft width 100 ft
---- / hdg 272

(H) RW 32 length 3049 ft width 100 ft
---- / hdg 321

Location; KOSU
Day. 22 / Time. 16.53 Zulu
* Altimeter: 30.42
* Temperature: 03° c. 37.4°f.
* Wind from: 100° Speed 06 kn.
Dewpoint: -03° c.
Visibility: 8 Statute Miles.
Clouds: Clear (automated report).

KOSU 221653Z 10006KT 8SM CLR 03/M03 A3042 RMK AO2 SLP309 T00281033


Wind From 100°
Speed 06 kn.

 
 
jpsmedia.com for Web Design worldairports.se 2019   terms of use